User: anonymous   Login
Location: Unspecified
(0.0000°N, 0.0000°E)
Time: 09:33:10
(UTC+01:00)
Language:

ISS - Orbit

View from above orbital plane
View from above orbital plane
View from above satellite
View from above satellite

Ground track
Ground track

The orbit data is extracted from the following two-line orbital elements,

1 25544U 98067A   16342.73348079  .00016717  00000-0  10270-3 0  9150
2 25544  51.6429 272.6810 0006626 305.6297  54.4238 15.53870122 31977
Epoch (UTC): 07 December 2016 17:36:12
Eccentricity: 0.0006626
inclination: 51.6429°
perigee height: 401 km
apogee height: 410 km
right ascension of ascending node: 272.6810°
argument of perigee: 305.6297°
revolutions per day: 15.53870122
mean anomaly at epoch: 54.4238°
orbit number at epoch: 3197

The dashed part of the orbit path shows where the satellite is in the earth's shadow,  

DLR